• In Hungary
  • List of Countries
  • For 7 days
  • Water Temperature
  • Satellite Maps
  • Weather Map
  • News
  • Weather Widgets
  • user-avatar
    Login

    Hourly Weather Staromusino

    Today, 20 October, Saturday

    Time Temperature Precipitation Wind Pressure Humidity
    00:00 +8°C° 0 mm 4 mps 745 mmHg 92%
    01:00 +8°C° 0 mm 4 mps 745 mmHg 92%
    02:00 +8°C° 0.6 mm 4 mps 745 mmHg 93%
    03:00 +8°C° 0.6 mm 4 mps 745 mmHg 94%
    04:00 +9°C° 0 mm 5 mps 744 mmHg 94%
    05:00 +9°C° 1.2 mm 5 mps 744 mmHg 94%
    06:00 +9°C° 1.2 mm 5 mps 744 mmHg 93%
    07:00 +9°C° 1.2 mm 5 mps 744 mmHg 93%
    08:00 +9°C° 0.9 mm 6 mps 744 mmHg 91%
    09:00 +9°C° 0.9 mm 6 mps 744 mmHg 88%
    10:00 +9°C° 0.9 mm 6 mps 744 mmHg 86%
    11:00 +9°C° 0.8 mm 6 mps 744 mmHg 86%
    12:00 +10°C° 0.8 mm 6 mps 743 mmHg 86%
    13:00 +10°C° 0.8 mm 5 mps 743 mmHg 85%
    14:00 +10°C° 1 mm 5 mps 743 mmHg 86%
    15:00 +9°C° 1 mm 5 mps 743 mmHg 87%
    16:00 +9°C° 1 mm 5 mps 743 mmHg 88%
    17:00 +10°C° 0.3 mm 4 mps 744 mmHg 87%
    18:00 +8°C° 0.3 mm 4 mps 744 mmHg 87%
    19:00 +8°C° 0.3 mm 4 mps 744 mmHg 86%
    20:00 +8°C° 0 mm 3 mps 745 mmHg 87%
    21:00 +7°C° 0 mm 3 mps 745 mmHg 88%
    22:00 +5°C° 0 mm 3 mps 745 mmHg 88%
    23:00 +5°C° 0 mm 3 mps 746 mmHg 89%

    Tomorrow, 21 October, Sunday

    Time Temperature Precipitation Wind Pressure Humidity
    00:00 +4°C° 0 mm 3 mps 746 mmHg 89%
    01:00 +4°C° 0 mm 3 mps 746 mmHg 90%
    02:00 +4°C° 0 mm 3 mps 747 mmHg 91%
    03:00 +3°C° 0 mm 3 mps 747 mmHg 92%
    04:00 +3°C° 0 mm 3 mps 747 mmHg 93%
    05:00 +2°C° 0 mm 3 mps 748 mmHg 93%
    06:00 +2°C° 0 mm 3 mps 748 mmHg 94%
    07:00 +2°C° 0 mm 3 mps 748 mmHg 95%
    08:00 +3°C° 0 mm 3 mps 749 mmHg 91%
    09:00 +3°C° 0 mm 3 mps 749 mmHg 87%
    10:00 +4°C° 0 mm 4 mps 750 mmHg 82%
    11:00 +4°C° 0 mm 4 mps 750 mmHg 78%
    12:00 +5°C° 0 mm 4 mps 751 mmHg 74%
    13:00 +5°C° 0 mm 4 mps 751 mmHg 70%
    14:00 +5°C° 0 mm 4 mps 751 mmHg 70%
    15:00 +5°C° 0 mm 4 mps 752 mmHg 69%
    16:00 +5°C° 0 mm 4 mps 752 mmHg 69%
    17:00 +4°C° 0 mm 3 mps 752 mmHg 70%
    18:00 +4°C° 0 mm 3 mps 753 mmHg 71%
    19:00 +3°C° 0 mm 3 mps 753 mmHg 72%
    20:00 +3°C° 0 mm 3 mps 754 mmHg 72%
    21:00 +3°C° 0 mm 2 mps 754 mmHg 73%
    22:00 +3°C° 0 mm 2 mps 754 mmHg 73%
    23:00 +3°C° 0 mm 2 mps 754 mmHg 73%

    Day after tomorrow, 22 October, Monday

    Time Temperature Precipitation Wind Pressure Humidity
    00:00 +2°C° 0 mm 2 mps 755 mmHg 73%
    01:00 +2°C° 0 mm 2 mps 755 mmHg 74%
    02:00 +3°C° 0 mm 1 mps 755 mmHg 74%
    03:00 +3°C° 0 mm 1 mps 755 mmHg 75%
    04:00 +2°C° 0 mm 1 mps 756 mmHg 76%
    05:00 +2°C° 0 mm 1 mps 756 mmHg 77%
    06:00 +2°C° 0 mm 1 mps 756 mmHg 79%
    07:00 +1°C° 0 mm 2 mps 756 mmHg 80%
    08:00 +2°C° 0 mm 2 mps 756 mmHg 78%
    09:00 +2°C° 0 mm 2 mps 756 mmHg 76%
    10:00 +3°C° 0 mm 2 mps 757 mmHg 74%
    11:00 +4°C° 0 mm 2 mps 757 mmHg 70%
    12:00 +4°C° 0 mm 2 mps 757 mmHg 67%
    13:00 +5°C° 0 mm 2 mps 757 mmHg 63%
    14:00 +6°C° 0 mm 1 mps 756 mmHg 64%
    15:00 +6°C° 0 mm 1 mps 756 mmHg 65%
    16:00 +6°C° 0 mm 1 mps 756 mmHg 65%
    17:00 +5°C° 0 mm 1 mps 756 mmHg 69%
    18:00 +5°C° 0 mm 1 mps 756 mmHg 72%
    19:00 +4°C° 0 mm 1 mps 757 mmHg 75%
    20:00 +4°C° 0 mm 1 mps 756 mmHg 77%
    21:00 +2°C° 0 mm 2 mps 756 mmHg 78%
    22:00 +2°C° 0 mm 2 mps 756 mmHg 80%
    23:00 +2°C° 0 mm 2 mps 756 mmHg 81%

    23 October, Tuesday

    Time Temperature Precipitation Wind Pressure Humidity
    00:00 +1°C° 0 mm 2 mps 756 mmHg 82%
    01:00 0°C° 0 mm 3 mps 756 mmHg 83%
    02:00 0°C° 0 mm 3 mps 756 mmHg 83%
    03:00 0°C° 0 mm 3 mps 755 mmHg 83%
    04:00 0°C° 0 mm 3 mps 755 mmHg 83%
    05:00 0°C° 0 mm 3 mps 755 mmHg 82%
    06:00 0°C° 0 mm 3 mps 755 mmHg 82%
    07:00 -1°C° 0 mm 3 mps 755 mmHg 81%
    08:00 0°C° 0 mm 4 mps 755 mmHg 76%
    09:00 +1°C° 0 mm 4 mps 754 mmHg 70%
    10:00 +2°C° 0 mm 5 mps 754 mmHg 65%
    11:00 +3°C° 0 mm 5 mps 754 mmHg 62%
    12:00 +5°C° 0 mm 5 mps 754 mmHg 58%
    13:00 +6°C° 0 mm 5 mps 753 mmHg 55%
    14:00 +6°C° 0 mm 4 mps 753 mmHg 56%
    15:00 +5°C° 0 mm 4 mps 753 mmHg 57%
    16:00 +5°C° 0 mm 4 mps 752 mmHg 58%
    17:00 +4°C° 0 mm 4 mps 752 mmHg 61%
    18:00 +3°C° 0 mm 4 mps 752 mmHg 64%
    19:00 +3°C° 0 mm 4 mps 752 mmHg 66%
    20:00 +1°C° 0 mm 4 mps 751 mmHg 67%
    21:00 +1°C° 0 mm 4 mps 751 mmHg 67%
    22:00 +1°C° 0 mm 4 mps 750 mmHg 67%
    23:00 +1°C° 0 mm 4 mps 750 mmHg 69%

    24 October, Wednesday

    Time Temperature Precipitation Wind Pressure Humidity
    00:00 +1°C° 0 mm 4 mps 749 mmHg 71%
    01:00 +1°C° 0 mm 4 mps 749 mmHg 72%
    02:00 +1°C° 0 mm 5 mps 749 mmHg 74%
    03:00 +2°C° 0 mm 5 mps 748 mmHg 76%
    04:00 +2°C° 0 mm 5 mps 748 mmHg 79%
    05:00 +2°C° 0 mm 5 mps 747 mmHg 80%
    06:00 +3°C° 0 mm 6 mps 747 mmHg 82%
    07:00 +3°C° 0 mm 6 mps 747 mmHg 84%
    08:00 +4°C° 0 mm 6 mps 747 mmHg 82%
    09:00 +5°C° 0 mm 7 mps 746 mmHg 80%
    10:00 +6°C° 0 mm 7 mps 746 mmHg 79%
    11:00 +8°C° 0.3 mm 7 mps 746 mmHg 78%
    12:00 +8°C° 0.3 mm 7 mps 746 mmHg 77%
    13:00 +8°C° 0.3 mm 7 mps 746 mmHg 76%
    14:00 +8°C° 0.1 mm 6 mps 746 mmHg 73%
    15:00 +8°C° 0.1 mm 6 mps 745 mmHg 70%
    16:00 +9°C° 0.1 mm 6 mps 745 mmHg 68%
    17:00 +8°C° 0 mm 6 mps 745 mmHg 66%
    18:00 +8°C° 0 mm 6 mps 745 mmHg 64%
    19:00 +8°C° 0 mm 6 mps 746 mmHg 62%
    20:00 +8°C° 0 mm 6 mps 746 mmHg 62%
    21:00 +8°C° 0 mm 6 mps 746 mmHg 63%
    22:00 +8°C° 0 mm 6 mps 746 mmHg 64%
    23:00 +8°C° 0 mm 6 mps 746 mmHg 64%

    25 October, Thursday

    Time Temperature Precipitation Wind Pressure Humidity
    00:00 +8°C° 0 mm 6 mps 746 mmHg 65%
    01:00 +8°C° 0 mm 5 mps 746 mmHg 65%
    02:00 +7°C° 0 mm 5 mps 746 mmHg 65%
    03:00 +7°C° 0 mm 5 mps 746 mmHg 66%
    04:00 +7°C° 0 mm 5 mps 746 mmHg 66%
    05:00 +6°C° 0 mm 5 mps 746 mmHg 66%
    06:00 +6°C° 0 mm 5 mps 746 mmHg 67%
    07:00 +6°C° 0 mm 5 mps 746 mmHg 67%
    08:00 +7°C° 0 mm 6 mps 746 mmHg 64%
    09:00 +8°C° 0 mm 6 mps 746 mmHg 61%
    10:00 +8°C° 0 mm 7 mps 746 mmHg 58%
    11:00 +10°C° 0 mm 7 mps 746 mmHg 55%
    12:00 +11°C° 0 mm 7 mps 745 mmHg 52%
    13:00 +12°C° 0 mm 8 mps 745 mmHg 49%
    14:00 +12°C° 0 mm 7 mps 745 mmHg 49%
    15:00 +11°C° 0 mm 7 mps 745 mmHg 49%
    16:00 +11°C° 0 mm 6 mps 745 mmHg 49%
    17:00 +10°C° 0 mm 6 mps 745 mmHg 48%
    18:00 +10°C° 0 mm 7 mps 745 mmHg 47%
    19:00 +9°C° 0 mm 7 mps 745 mmHg 46%
    20:00 +9°C° 0 mm 7 mps 745 mmHg 46%
    21:00 +8°C° 0 mm 7 mps 744 mmHg 46%
    22:00 +8°C° 0 mm 7 mps 744 mmHg 46%
    23:00 +8°C° 0 mm 7 mps 744 mmHg 46%
    Show more